Saint Augustine, FL

5:39 PM EDT on August 26, 2016 (GMT -0400)
Saint Augustine

Weather History for KSGJ - November, 2011

Change the Weather History Date:

Wednesday, November 23, 2011

  Actual Average Record
Temperature  
Mean Temperature 70 °F -  
Max Temperature 77 °F 69 °F 87 °F (1992)
Min Temperature 61 °F 52 °F 30 °F (2000)
Cooling Degree Days 6    
Growing Degree Days 20 (Base 50)    
Moisture  
Dew Point 65 °F    
Average Humidity 85    
Maximum Humidity 94    
Minimum Humidity 68    
Precipitation  
Precipitation 0.31 in - - ()
Sea Level Pressure  
Sea Level Pressure 30.05 in    
Wind  
Wind Speed 9 mph (WSW)    
Max Wind Speed 14 mph    
Max Gust Speed 18 mph    
Visibility 9 miles    
Events Rain    
Averages and records for this station are not official NWS values.
T = Trace of Precipitation, MM = Missing Value Source: NWS Daily Summary

Daily Weather History Graph

Daily Weather History Graph

Search for Another Location

Airport or City:

Trip Planner

Search our weather history database for the weather conditions in past years. The results will help you decide how hot, cold, wet, or windy it might be!

Date:

Astronomy

Nov. 23, 2011 Rise Set
Actual Time 6:56 AM EST 5:26 PM EST
Civil Twilight 6:31 AM EST 5:52 PM EST
Nautical Twilight 6:01 AM EST 6:21 PM EST
Astronomical Twilight 5:33 AM EST 6:50 PM EST
Moon 5:02 AM EST (11/23) 4:05 PM EST (11/23)
Length of Visible Light 11h 20m
Length of Day
10h 29m
Waning Crescent, 4% of the Moon is Illuminated
Nov 23
Waning Crescent
Nov 25
New
Dec 2
First Quarter
Dec 10
Full
Dec 17
Last Quarter

Hourly Weather History & Observations

Time (EST) Temp. Dew Point Humidity Pressure Visibility Wind Dir Wind Speed Gust Speed Precip Events Conditions
12:58 AM 70.0 °F 66.9 °F 90% 30.09 in 10.0 mi SSW 8.1 mph - N/A   Clear
1:48 AM 69.8 °F 66.2 °F 88% 30.08 in 10.0 mi South 9.2 mph - N/A   Mostly Cloudy
1:58 AM 69.1 °F 66.9 °F 93% 30.08 in 10.0 mi SSW 9.2 mph - N/A   Mostly Cloudy
2:09 AM 69.8 °F 66.2 °F 88% 30.08 in 10.0 mi SSW 8.1 mph - N/A   Scattered Clouds
2:58 AM 69.1 °F 66.0 °F 90% 30.06 in 10.0 mi SSW 8.1 mph - N/A   Partly Cloudy
3:07 AM 69.8 °F 66.2 °F 88% 30.07 in 10.0 mi SSW 9.2 mph - N/A   Mostly Cloudy
3:17 AM 69.8 °F 66.2 °F 88% 30.06 in 10.0 mi SSW 8.1 mph - N/A   Scattered Clouds
3:58 AM 69.1 °F 66.0 °F 90% 30.05 in 10.0 mi SSW 10.4 mph - N/A   Partly Cloudy
4:58 AM 69.1 °F 66.0 °F 90% 30.04 in 10.0 mi SSW 8.1 mph - N/A   Clear
5:58 AM 69.1 °F 64.9 °F 87% 30.04 in 10.0 mi SW 9.2 mph - N/A   Partly Cloudy
6:58 AM 69.1 °F 64.9 °F 87% 30.05 in 10.0 mi SW 6.9 mph - 0.00 in   Overcast
7:58 AM 69.1 °F 66.0 °F 90% 30.08 in 9.0 mi WSW 6.9 mph - 0.02 in Rain Rain
8:04 AM 68.0 °F 66.2 °F 94% 30.08 in 2.0 mi West 6.9 mph - 0.05 in Rain Heavy Rain
8:29 AM 68.0 °F 66.2 °F 94% 30.09 in 2.0 mi West 6.9 mph - 0.19 in Rain Light Rain
8:33 AM 68.0 °F 66.2 °F 94% 30.09 in 2.0 mi WSW 6.9 mph - 0.19 in Rain Rain
8:46 AM 68.0 °F 66.2 °F 94% 30.08 in 2.0 mi WSW 10.4 mph - 0.21 in Rain Rain
8:54 AM 68.0 °F 66.2 °F 94% 30.09 in 2.0 mi WSW 9.2 mph - 0.22 in Rain Light Rain
8:58 AM 68.0 °F 66.0 °F 93% 30.09 in 2.0 mi WSW 10.4 mph - 0.23 in Rain Light Rain
9:02 AM 68.0 °F 66.2 °F 94% 30.09 in 8.0 mi SW 10.4 mph - 0.01 in Rain Light Rain
9:11 AM 68.0 °F 66.2 °F 94% 30.09 in 9.0 mi SW 10.4 mph - 0.02 in Rain Rain
9:58 AM 68.0 °F 66.0 °F 93% 30.07 in 10.0 mi SSW 8.1 mph - 0.06 in   Mostly Cloudy
10:58 AM 71.1 °F 68.0 °F 90% 30.06 in 10.0 mi WSW 9.2 mph - N/A   Mostly Cloudy
11:58 AM 73.9 °F 69.1 °F 85% 30.03 in 10.0 mi SW 10.4 mph - N/A   Scattered Clouds
12:26 PM 75.2 °F 69.8 °F 83% 30.01 in 10.0 mi WSW 11.5 mph - N/A   Mostly Cloudy
12:58 PM 75.9 °F 66.9 °F 74% 29.99 in 10.0 mi West 12.7 mph 17.3 mph N/A   Mostly Cloudy
1:02 PM 75.2 °F 66.2 °F 73% 29.99 in 10.0 mi West 13.8 mph 17.3 mph N/A   Mostly Cloudy
1:58 PM 77.0 °F 66.0 °F 69% 29.98 in 10.0 mi WSW 13.8 mph - N/A   Scattered Clouds
2:58 PM 75.9 °F 66.0 °F 71% 29.96 in 10.0 mi West 8.1 mph - N/A   Mostly Cloudy
3:58 PM 77.0 °F 66.0 °F 69% 29.97 in 10.0 mi West 8.1 mph 18.4 mph N/A   Clear
4:58 PM 75.0 °F 66.0 °F 73% 29.98 in 10.0 mi West 6.9 mph - N/A   Clear
5:58 PM 71.1 °F 64.9 °F 81% 30.01 in 10.0 mi West 5.8 mph - N/A   Clear
6:58 PM 70.0 °F 64.9 °F 84% 30.03 in 10.0 mi West 4.6 mph - N/A   Clear
7:58 PM 66.9 °F 63.0 °F 87% 30.05 in 10.0 mi NW 6.9 mph - N/A   Clear
8:58 PM 66.9 °F 57.9 °F 73% 30.07 in 10.0 mi NW 10.4 mph - N/A   Clear
9:58 PM 66.0 °F 55.0 °F 68% 30.10 in 10.0 mi NNW 11.5 mph - N/A   Clear
10:58 PM 64.0 °F 54.0 °F 70% 30.12 in 10.0 mi NNW 9.2 mph - N/A   Clear
11:58 PM 61.0 °F 53.1 °F 75% 30.12 in 10.0 mi NNW 8.1 mph - N/A   Clear